TimeCDT,TemperatureF,Dew PointF,Humidity,Sea Level PressureIn,VisibilityMPH,Wind Direction,Wind SpeedMPH,Gust SpeedMPH,PrecipitationIn,Events,Conditions,WindDirDegrees,DateUTC
12:15 AM,48.2,46.4,93,29.80,5.0,NNW,6.9,-,N/A,,Clear,330,2012-10-24 05:15:00
12:35 AM,46.4,46.4,100,29.82,4.0,NW,9.2,-,N/A,,Clear,310,2012-10-24 05:35:00
12:55 AM,46.4,44.6,93,29.82,4.0,NW,10.4,-,N/A,,Clear,310,2012-10-24 05:55:00
1:15 AM,46.4,44.6,93,29.82,4.0,NW,6.9,-,N/A,,Clear,310,2012-10-24 06:15:00
1:35 AM,46.4,46.4,100,29.83,5.0,WNW,12.7,-,N/A,,Clear,300,2012-10-24 06:35:00
1:55 AM,48.2,46.4,93,29.84,5.0,WNW,15.0,-,N/A,,Clear,300,2012-10-24 06:55:00
2:15 AM,48.2,46.4,93,29.84,5.0,NW,16.1,21.9,N/A,,Scattered Clouds,310,2012-10-24 07:15:00
2:35 AM,48.2,46.4,93,29.84,3.0,NW,17.3,-,N/A,,Overcast,320,2012-10-24 07:35:00
2:55 AM,50.0,48.2,94,29.84,4.0,NNW,18.4,23.0,N/A,,Overcast,330,2012-10-24 07:55:00
3:15 AM,50.0,48.2,94,29.84,4.0,NNW,17.3,-,N/A,,Overcast,330,2012-10-24 08:15:00
3:35 AM,48.2,48.2,100,29.84,5.0,NNW,17.3,-,N/A,,Overcast,340,2012-10-24 08:35:00
3:55 AM,48.2,48.2,100,29.82,5.0,NNW,15.0,20.7,N/A,,Overcast,340,2012-10-24 08:55:00
4:15 AM,50.0,48.2,94,29.83,5.0,North,9.2,-,N/A,,Overcast,350,2012-10-24 09:15:00
4:35 AM,50.0,48.2,94,29.83,7.0,North,10.4,-,N/A,,Overcast,350,2012-10-24 09:35:00
4:55 AM,51.8,48.2,88,29.83,10.0,North,10.4,-,N/A,,Overcast,350,2012-10-24 09:55:00
5:15 AM,51.8,48.2,88,29.84,10.0,North,8.1,-,N/A,,Mostly Cloudy,10,2012-10-24 10:15:00
5:35 AM,50.0,48.2,94,29.83,9.0,North,8.1,-,N/A,,Mostly Cloudy,350,2012-10-24 10:35:00
5:55 AM,50.0,48.2,94,29.83,8.0,North,9.2,-,N/A,,Overcast,360,2012-10-24 10:55:00
6:15 AM,50.0,48.2,94,29.82,8.0,NNW,11.5,-,N/A,,Overcast,330,2012-10-24 11:15:00
6:35 AM,50.0,46.4,87,29.83,10.0,NNW,13.8,-,N/A,,Mostly Cloudy,330,2012-10-24 11:35:00
6:55 AM,48.2,46.4,93,29.85,8.0,NNW,8.1,-,N/A,,Partly Cloudy,340,2012-10-24 11:55:00
7:15 AM,48.2,46.4,93,29.86,7.0,NW,11.5,-,N/A,,Mostly Cloudy,320,2012-10-24 12:15:00
7:35 AM,46.4,44.6,93,29.87,8.0,NW,12.7,-,N/A,,Overcast,320,2012-10-24 12:35:00
7:55 AM,46.4,44.6,93,29.88,8.0,NW,13.8,-,N/A,,Overcast,320,2012-10-24 12:55:00
8:15 AM,44.6,42.8,93,29.89,5.0,NW,15.0,-,N/A,,Overcast,320,2012-10-24 13:15:00
8:35 AM,44.6,44.6,100,29.89,1.5,NW,13.8,-,N/A,,Overcast,310,2012-10-24 13:35:00
8:55 AM,44.6,42.8,93,29.89,1.2,NW,15.0,-,N/A,,Overcast,320,2012-10-24 13:55:00
9:15 AM,44.6,42.8,93,29.88,1.5,NNW,13.8,-,N/A,,Overcast,330,2012-10-24 14:15:00
9:35 AM,44.6,44.6,100,29.87,1.5,NNW,13.8,-,N/A,,Overcast,330,2012-10-24 14:35:00
9:55 AM,46.4,44.6,93,29.86,3.0,NNW,16.1,-,N/A,,Overcast,330,2012-10-24 14:55:00
10:15 AM,46.4,44.6,93,29.86,3.0,NNW,16.1,21.9,N/A,,Overcast,330,2012-10-24 15:15:00
10:35 AM,48.2,46.4,93,29.87,5.0,NNW,16.1,-,N/A,,Mostly Cloudy,330,2012-10-24 15:35:00
10:55 AM,48.2,44.6,87,29.86,5.0,NNW,17.3,-,N/A,,Overcast,330,2012-10-24 15:55:00
11:15 AM,48.2,46.4,93,29.87,7.0,NNW,15.0,-,N/A,,Overcast,340,2012-10-24 16:15:00
11:35 AM,48.2,44.6,87,29.87,10.0,NNW,17.3,-,N/A,,Overcast,330,2012-10-24 16:35:00
11:55 AM,48.2,44.6,87,29.87,9.0,NNW,16.1,-,N/A,,Overcast,340,2012-10-24 16:55:00
12:15 PM,48.2,44.6,87,29.87,10.0,NNW,21.9,-,N/A,,Overcast,340,2012-10-24 17:15:00
12:35 PM,48.2,44.6,87,29.86,10.0,NNW,18.4,-,N/A,,Overcast,340,2012-10-24 17:35:00
12:55 PM,48.2,44.6,87,29.86,10.0,North,18.4,21.9,N/A,,Overcast,350,2012-10-24 17:55:00
1:15 PM,48.2,44.6,87,29.85,10.0,NNW,17.3,-,N/A,,Overcast,330,2012-10-24 18:15:00
1:35 PM,50.0,44.6,82,29.84,10.0,NNW,19.6,-,N/A,,Overcast,330,2012-10-24 18:35:00
1:55 PM,51.8,42.8,71,29.84,10.0,NNW,16.1,21.9,N/A,,Overcast,330,2012-10-24 18:55:00
2:15 PM,51.8,42.8,71,29.83,10.0,NNW,20.7,-,N/A,,Overcast,340,2012-10-24 19:15:00
2:35 PM,51.8,42.8,71,29.83,10.0,NNW,18.4,23.0,N/A,,Overcast,340,2012-10-24 19:35:00
2:55 PM,51.8,42.8,71,29.83,10.0,North,15.0,23.0,N/A,,Overcast,350,2012-10-24 19:55:00
3:15 PM,53.6,41.0,62,29.82,10.0,NNW,18.4,21.9,N/A,,Overcast,340,2012-10-24 20:15:00
3:35 PM,53.6,39.2,58,29.81,10.0,North,18.4,25.3,N/A,,Overcast,360,2012-10-24 20:35:00
3:55 PM,53.6,39.2,58,29.81,10.0,North,16.1,-,N/A,,Overcast,350,2012-10-24 20:55:00
4:15 PM,53.6,39.2,58,29.81,10.0,North,20.7,25.3,N/A,,Overcast,360,2012-10-24 21:15:00
4:35 PM,53.6,39.2,58,29.81,10.0,North,13.8,20.7,N/A,,Overcast,350,2012-10-24 21:35:00
4:55 PM,53.6,39.2,58,29.81,10.0,North,16.1,-,N/A,,Overcast,350,2012-10-24 21:55:00
5:15 PM,53.6,39.2,58,29.82,10.0,North,17.3,21.9,N/A,,Overcast,360,2012-10-24 22:15:00
5:35 PM,53.6,37.4,54,29.82,10.0,North,13.8,19.6,N/A,,Overcast,360,2012-10-24 22:35:00
5:55 PM,53.6,37.4,54,29.83,10.0,North,13.8,21.9,N/A,,Overcast,360,2012-10-24 22:55:00
6:15 PM,53.6,35.6,51,29.84,10.0,North,18.4,-,N/A,,Overcast,350,2012-10-24 23:15:00
6:35 PM,51.8,32.0,47,29.84,10.0,North,16.1,23.0,N/A,,Overcast,350,2012-10-24 23:35:00
6:55 PM,51.8,33.8,50,29.84,10.0,North,11.5,-,N/A,,Overcast,350,2012-10-24 23:55:00
7:15 PM,51.8,33.8,50,29.85,10.0,North,13.8,-,N/A,,Overcast,350,2012-10-25 00:15:00
7:35 PM,51.8,33.8,50,29.86,10.0,North,13.8,-,N/A,,Overcast,350,2012-10-25 00:35:00
7:55 PM,50.0,33.8,54,29.86,10.0,NNW,16.1,20.7,N/A,,Overcast,340,2012-10-25 00:55:00
8:15 PM,50.0,33.8,54,29.85,10.0,NNW,16.1,24.2,N/A,,Overcast,340,2012-10-25 01:15:00
8:35 PM,48.2,32.0,54,29.86,10.0,NNW,20.7,26.5,N/A,,Overcast,340,2012-10-25 01:35:00
8:55 PM,48.2,32.0,54,29.87,10.0,NNW,19.6,25.3,N/A,,Overcast,340,2012-10-25 01:55:00
9:15 PM,46.4,32.0,57,29.88,10.0,NNW,19.6,23.0,N/A,,Overcast,330,2012-10-25 02:15:00
9:35 PM,46.4,32.0,57,29.87,10.0,NNW,18.4,25.3,N/A,,Overcast,340,2012-10-25 02:35:00
9:55 PM,44.6,32.0,61,29.87,10.0,NNW,16.1,21.9,N/A,,Overcast,330,2012-10-25 02:55:00
10:15 PM,44.6,33.8,66,29.88,10.0,NNW,20.7,-,N/A,,Overcast,330,2012-10-25 03:15:00
10:35 PM,44.6,33.8,66,29.90,10.0,NW,23.0,29.9,N/A,,Overcast,320,2012-10-25 03:35:00
10:55 PM,42.8,33.8,70,29.90,10.0,NW,21.9,28.8,N/A,,Overcast,320,2012-10-25 03:55:00
11:15 PM,42.8,33.8,70,29.90,10.0,NW,17.3,28.8,N/A,,Overcast,320,2012-10-25 04:15:00
11:35 PM,41.0,33.8,76,29.89,10.0,NNW,20.7,26.5,N/A,,Overcast,330,2012-10-25 04:35:00
11:55 PM,41.0,33.8,76,29.87,10.0,NNW,19.6,27.6,N/A,,Overcast,330,2012-10-25 04:55:00